Location: *
(38.3914°N, 75.0697°W)
Time: 00:44:40
(UTC+00:00)

Cosmos 921 Rocket - Pass Details

Date: 17 February 2020
Orbit: 572 x 631 km, 75.8° (Epoch: 04 April)

Event Time Altitude Azimuth Distance (km) Brightness Sun altitude
Rises 00:26:28 0° 195° (SSW) 2,883 6.7 -21.6°
Reaches altitude 10° 00:28:41 10° 196° (SSW) 1,988 5.8 -22.1°
Maximum altitude 00:33:09 87° 287° (WNW) 635 3.0 -22.9°
Enters shadow 00:34:57 36° 14° (NNE) 999 4.0 -23.3°
